Rabat-Sale, Morocco

10:43 AM WEST on April 24, 2018 (GMT +0100)
Rabat-Sale

Weather History for GMME - February, 2014

Change the Weather History Date:

Tuesday, February 11, 2014

  Actual Average Record
Temperature  
Mean Temperature 50 °F -  
Max Temperature 59 °F 63 °F 80 °F (2008)
Min Temperature 40 °F 46 °F 39 °F (2011)
Degree Days  
Heating Degree Days 16    
Moisture  
Dew Point 42 °F    
Average Humidity 70    
Maximum Humidity 93    
Minimum Humidity 39    
Precipitation  
Precipitation 0.00 in 0.09 in - ()
Sea Level Pressure  
Sea Level Pressure 30.29 in    
Wind  
Wind Speed 5 mph ()    
Max Wind Speed 9 mph    
Max Gust Speed -    
Visibility 4.9 miles    
Events      
Averages and records for this station are not official NWS values.
T = Trace of Precipitation, MM = Missing Value Source: Averaged Metar Reports

Daily Weather History Graph

Daily Weather History Graph

Search for Another Location

Airport or City:

Astronomy

Feb. 11, 2014 Rise Set
Actual Time 7:15 AM WET 6:07 PM WET
Civil Twilight 6:50 AM WET 6:32 PM WET
Nautical Twilight 6:20 AM WET 7:02 PM WET
Astronomical Twilight 5:51 AM WET 7:31 PM WET
Moon 3:19 PM WET (2/11) 4:39 AM WET (2/11)
Length of Visible Light 11h 42m
Length of Day
10h 51m
Waxing Gibbous, 89% of the Moon is Illuminated
Feb 11
Waxing Gibbous
Feb 14
Full
Feb 22
Last Quarter
Mar 1
New
Mar 8
First Quarter

Hourly Weather History & Observations

Time (WET) Temp. Windchill Dew Point Humidity Pressure Visibility Wind Dir Wind Speed Gust Speed Precip Events Conditions
12:00 AM 43 °F - 41 °F 88% 30.38 in 5 mi SSE 4.6 mph - -   Scattered Clouds
12:00 AM 42.8 °F 40.1 °F 41.0 °F 93% 30.36 in 5.0 mi SSE 4.6 mph - N/A   Partly Cloudy
12:30 AM 44.6 °F 42.2 °F 41.0 °F 87% 30.33 in 3.7 mi SSE 4.6 mph - N/A   Partly Cloudy
1:00 AM 44.6 °F 42.2 °F 41.0 °F 87% 30.33 in 3.7 mi SSE 4.6 mph - N/A   Partly Cloudy
1:30 AM 44.6 °F 42.2 °F 41.0 °F 87% 30.33 in 3.7 mi SSE 4.6 mph - N/A   Partly Cloudy
2:00 AM 44.6 °F 42.2 °F 41.0 °F 87% 30.33 in 3.7 mi SSE 4.6 mph - N/A   Partly Cloudy
2:30 AM 44.6 °F 41.4 °F 41.0 °F 87% 30.30 in 3.7 mi SE 5.8 mph - N/A   Partly Cloudy
3:00 AM 44 °F - 41 °F 86% 30.33 in 4 mi SE 5.8 mph - -   Scattered Clouds
3:00 AM 44.6 °F 41.4 °F 41.0 °F 87% 30.30 in 3.7 mi SE 5.8 mph - N/A   Partly Cloudy
3:30 AM 44.6 °F 43.1 °F 41.0 °F 87% 30.33 in 3.7 mi SSE 3.5 mph - N/A   Partly Cloudy
4:00 AM 44.6 °F 43.1 °F 41.0 °F 87% 30.33 in 3.7 mi SSE 3.5 mph - N/A   Partly Cloudy
4:30 AM 44.6 °F 42.2 °F 41.0 °F 87% 30.30 in 3.7 mi SSE 4.6 mph - N/A   Partly Cloudy
5:00 AM 44.6 °F 42.2 °F 41.0 °F 87% 30.30 in 3.7 mi SSE 4.6 mph - N/A   Partly Cloudy
5:30 AM 42.8 °F 41.1 °F 41.0 °F 93% 30.30 in 3.7 mi SSE 3.5 mph - N/A   Partly Cloudy
6:00 AM 43 °F - 40 °F 83% 30.32 in 4 mi SSE 3.5 mph - -   Scattered Clouds
6:00 AM 42.8 °F 41.1 °F 39.2 °F 87% 30.30 in 3.7 mi SSE 3.5 mph - N/A   Partly Cloudy
6:30 AM 42.8 °F 41.1 °F 39.2 °F 87% 30.30 in 3.7 mi SSE 3.5 mph - N/A   Partly Cloudy
7:00 AM 41.0 °F - 37.4 °F 87% 30.30 in 5.0 mi Variable 1.2 mph - N/A   Partly Cloudy
7:30 AM 41.0 °F 39.0 °F 37.4 °F 87% 30.30 in 5.0 mi SSE 3.5 mph - N/A   Partly Cloudy
8:00 AM 42.8 °F 40.1 °F 41.0 °F 93% 30.30 in - SSE 4.6 mph - N/A   Clear
8:30 AM 48.2 °F - 42.8 °F 82% 30.30 in - SSE 3.5 mph - N/A   Clear
9:00 AM 50 °F - 43 °F 69% 30.34 in 6 mi South 2.3 mph - -   Clear
9:00 AM 50.0 °F - 42.8 °F 76% 30.33 in - Variable 2.3 mph - N/A   Clear
9:30 AM 53.6 °F - 42.8 °F 67% 30.33 in - South 3.5 mph - N/A   Clear
10:00 AM 55.4 °F - 44.6 °F 67% 30.33 in - SSW 4.6 mph - N/A   Clear
10:30 AM 57.2 °F - 41.0 °F 55% 30.30 in - SSW 4.6 mph - N/A   Clear
11:00 AM 59.0 °F - 39.2 °F 48% 30.30 in - Variable 2.3 mph - N/A   Clear
11:30 AM 59.0 °F - 41.0 °F 51% 30.30 in - WNW 4.6 mph - N/A   Clear
12:00 PM 58 °F - 40 °F 39% 30.32 in 5 mi NW 8.1 mph - -   Partly Cloudy
12:00 PM 57.2 °F - 39.2 °F 51% 30.30 in 5.0 mi NW 8.1 mph - N/A   Mostly Cloudy
12:30 PM 57.2 °F - 39.2 °F 51% 30.27 in 5.0 mi NW 5.8 mph - N/A   Mostly Cloudy
1:00 PM 59.0 °F - 39.2 °F 48% 30.27 in 5.0 mi NW 4.6 mph - N/A   Mostly Cloudy
1:30 PM 59.0 °F - 37.4 °F 45% 30.24 in 5.0 mi West 6.9 mph - N/A   Mostly Cloudy
2:00 PM 59.0 °F - 39.2 °F 48% 30.24 in 5.0 mi WNW 6.9 mph - N/A   Mostly Cloudy
2:30 PM 59.0 °F - 37.4 °F 45% 30.24 in 6.2 mi WNW 9.2 mph - N/A   Mostly Cloudy
3:00 PM 58 °F - 40 °F 40% 30.26 in 6 mi WNW 8.1 mph - -   Partly Cloudy
3:00 PM 59.0 °F - 41.0 °F 51% 30.24 in 6.2 mi WNW 8.1 mph - N/A   Mostly Cloudy
3:30 PM 59.0 °F - 42.8 °F 55% 30.24 in 6.2 mi WNW 6.9 mph - N/A   Mostly Cloudy
4:00 PM 59.0 °F - 39.2 °F 48% 30.24 in 6.2 mi West 6.9 mph - N/A   Mostly Cloudy
4:30 PM 59.0 °F - 41.0 °F 51% 30.24 in 6.2 mi WSW 5.8 mph - N/A   Mostly Cloudy
5:00 PM 59.0 °F - 41.0 °F 51% 30.24 in 6.2 mi West 5.8 mph - N/A   Mostly Cloudy
5:30 PM 57.2 °F - 42.8 °F 59% 30.24 in 6.2 mi West 5.8 mph - N/A   Mostly Cloudy
6:00 PM 56 °F - 43 °F 52% 30.27 in 6 mi WSW 5.8 mph - -   Partly Cloudy
6:00 PM 57.2 °F - 42.8 °F 59% 30.24 in 6.2 mi WSW 5.8 mph - N/A   Mostly Cloudy
6:30 PM 55.4 °F - 44.6 °F 67% 30.24 in 6.2 mi WSW 4.6 mph - N/A   Mostly Cloudy
7:00 PM 55.4 °F - 44.6 °F 67% 30.24 in 6.2 mi WSW 6.9 mph - N/A   Mostly Cloudy
7:30 PM 57.2 °F - 44.6 °F 63% 30.27 in 6.2 mi WSW 6.9 mph - N/A   Mostly Cloudy
8:00 PM 55.4 °F - 44.6 °F 67% 30.27 in 3.7 mi WSW 6.9 mph - N/A   Mostly Cloudy
8:30 PM 53.6 °F - 44.6 °F 72% 30.24 in 5.0 mi SW 5.8 mph - N/A   Mostly Cloudy
9:00 PM 54 °F - 45 °F 63% 30.27 in 5 mi SSW 5.8 mph - -   Partly Cloudy
9:00 PM 53.6 °F - 44.6 °F 72% 30.24 in 5.0 mi SSW 5.8 mph - N/A   Mostly Cloudy
9:30 PM 53.6 °F - 44.6 °F 72% 30.27 in 5.0 mi South 6.9 mph - N/A   Mostly Cloudy
10:00 PM 53.6 °F - 44.6 °F 72% 30.27 in 5.0 mi SSW 5.8 mph - N/A   Mostly Cloudy
10:30 PM 51.8 °F - 44.6 °F 76% 30.27 in 5.0 mi South 4.6 mph - N/A   Mostly Cloudy
11:00 PM 51.8 °F - 46.4 °F 82% 30.27 in 5.0 mi South 5.8 mph - N/A   Mostly Cloudy
11:30 PM 51.8 °F - 44.6 °F 76% 30.27 in 5.0 mi South 5.8 mph - N/A   Mostly Cloudy